Regional Weather Roundup
Issued by NWS

Home | Current Version | Previous Version | Text Only | Print | Product List | Glossary Off
Versions: 1 2 3 4 5 6 7 8 9 10 11 12 13 14 15 16 17 18 19 20 21 22 23 24 25 26 27

000
ASUS43 KDMX 182307
RWRIA

WEATHER ROUNDUP FOR IOWA
NATIONAL WEATHER SERVICE DES MOINES IA
600 PM CDT FRI APR 18 2014

NOTE: "FAIR" INDICATES FEW OR NO CLOUDS BELOW 12,000 FEET WITH NO
SIGNIFICANT WEATHER AND/OR OBSTRUCTIONS TO VISIBILITY.

* - THESE STATIONS ARE NOT NWS STATIONS...THUS NOT UNDER NWS
QUALITY CONTROL.  THEY ALSO DO NOT REPORT WEATHER SUCH
AS PRECIPITATION OR FOG.

IAZ001>003-012>014-020>022-031>034-043>046-190000-
   NORTHWEST IOWA

CITY           SKY/WX    TMP DP  RH WIND       PRES   REMARKS
CARROLL *      SUNNY     66  30  26 SE21      30.13F
CHEROKEE *     SUNNY     66  34  30 S18G29    30.09F
DENISON *      SUNNY     66  32  28 S14G25    30.10F
LE MARS *      SUNNY     66  37  34 S22G30    30.04S
ORANGE CITY *  SUNNY     66  32  28 S22G30    30.05S
SHELDON *      SUNNY     64  34  32 S29G35    30.05F
SIOUX CITY     MOSUNNY   70  37  29 S23G31    30.05F
SPENCER        SUNNY     64  32  30 S25G37    30.11F
STORM LAKE *   SUNNY     64  30  27 S23G30    30.11F
$$

IAZ055>058-069>071-079>083-090>094-190000-
   SOUTHWEST IOWA

CITY           SKY/WX    TMP DP  RH WIND       PRES   REMARKS
ATLANTIC *     SUNNY     66  32  28 S14G21    30.13F
AUDUBON *      SUNNY     66  18  15 S12       30.15F
CLARINDA *     SUNNY     68  36  30 S13G23    30.16S
COUNCIL BLFS * SUNNY     66  39  37 S21G26    30.09F
CRESTON *      SUNNY     64  34  32 SE17      30.16F
HARLAN  *      SUNNY     66  36  32 S17G25    30.15F
LAMONI         SUNNY     64  34  32 SE12      30.18F
RED OAK *      SUNNY     68  36  30 S14G23    30.13F
SHENANDOAH *   SUNNY     68  37  32 S16G24    30.13F
$$

IAZ047>049-059>061-072>074-084-190000-
   CENTRAL IOWA

CITY           SKY/WX    TMP DP  RH WIND       PRES   REMARKS
AMES           SUNNY     62  30  29 SE14      30.20F
ANKENY *       SUNNY     64  32  29 SE13      30.19F
CHARITON *     SUNNY     64  36  34 S10G17    30.19F
DES MOINES     MOSUNNY   65  32  29 SE15G22   30.19F
GRINNELL*      SUNNY     61  27  27 SE12      30.23F
KNOXVILLE *    SUNNY     64  32  29 SE13      30.20F
MARSHALLTOWN   SUNNY     60  29  30 SE14      30.22F
NEWTON *       SUNNY     63  30  29 SE14      30.22F
PELLA *        SUNNY     64  32  29 SE10      30.23F
PERRY *          N/A     64  27  24 SE16G23   30.17F
$$

IAZ004>006-015-016-023>025-035-036-190000-
   NORTH CENTRAL IOWA

CITY           SKY/WX    TMP DP  RH WIND       PRES   REMARKS
ALGONA *       SUNNY     61  30  31 SE18G26   30.17S
CLARION *      SUNNY     61  30  31 SE18G28   30.19F
ESTHERVILLE    SUNNY     60  32  34 SE26G32   30.13F
FORT DODGE *   SUNNY     63  32  31 S10G22    30.18F
MASON CITY     SUNNY     58  31  35 SE17      30.22F
FOREST CITY *  SUNNY     57  32  38 SE14      30.20F
IOWA FALLS *     N/A     61  30  31 SE13      30.23S
$$

IAZ007>011-017>019-026>030-037>042-050>054-066-190000-
   NORTHEAST IOWA

CITY           SKY/WX    TMP DP  RH WIND       PRES   REMARKS
CEDAR RAPIDS   SUNNY     61  25  25 SE9       30.24F
CHARLES CITY * SUNNY     57  30  35 SE10G21   30.24F
CLINTON *      SUNNY     61  27  27 E5        30.29F
DECORAH *      SUNNY     55  28  35 SE6G13    30.26F
DUBUQUE        SUNNY     57  28  33 E9        30.28F
MONTICELLO *   SUNNY     61  30  31 SE7       30.26F
OELWEIN *      SUNNY    N/A N/A N/A SE10      30.27S
WATERLOO       SUNNY     59  24  26 SE12      30.24F
$$

IAZ064-065-067-068-078-190000-
   EAST CENTRAL IOWA

CITY           SKY/WX    TMP DP  RH WIND       PRES   REMARKS
DAVENPORT      SUNNY     61  27  27 E7        30.27F
IOWA CITY      SUNNY     62  29  28 SE9       30.26F
MT. PLEASANT * SUNNY     64  23  20 E5        30.24S
MUSCATINE *    SUNNY     64  30  27 CALM      30.25F
QUAD CITIES    SUNNY     63  28  26 E5        30.25F
$$

IAZ062-063-075>077-085>089-095>099-190000-
   SOUTHEAST IOWA

CITY           SKY/WX    TMP DP  RH WIND       PRES   REMARKS
BURLINGTON     SUNNY     64  27  24 CALM      30.24F
FAIRFIELD *    SUNNY     63  25  23 SE8       30.24S
FORT MADISON * SUNNY     64  30  27 CALM      30.25F
KEOKUK *       SUNNY     64  28  25 E5        30.23F
OSKALOOSA *      N/A     64  30  27 SE6       30.23F
CENTERVILLE *  SUNNY     64  36  34 SE12      30.22F
OTTUMWA        SUNNY     63  29  27 SE10      30.22F
WASHINGTON *   SUNNY     64  27  24 SE10      30.25S
$$

ABBREVIATIONS USED IN REMARKS
   TC - TEMPERATURES IN CELSIUS
  WCI - WIND CHILL INDEX
   HX - HEAT INDEX
  VSB - VISIBILITY
$$




USA.gov is the U.S. government's official web portal to all federal, state and local government web resources and services.